FW3031 Weather Reports


time (UTC)temp
F
wind
direction
speed
knots
gust
knots
rain 1hr
in
rain 24hr
in
rain mn
in
humidity
%
barometer
mb
20260906095524 68 190 0.0 0.9 0.01 0.02 0.01 90 1014.2
20260906095024 68 190 0.0 0.0 0.01 0.02 0.01 90 1014.2
20260906094606 69 0 0.0 0.0 0.00 0.01 0.00 89 1012.0
20260906094522 68 190 0.0 0.0 0.01 0.02 0.01 90 1014.1
20260906094022 68 190 0.0 0.0 0.01 0.02 0.01 89 1014.0
20260906093522 68 190 0.0 0.0 0.01 0.02 0.01 89 1014.1
20260906093105 69 0 0.0 0.9 0.00 0.01 0.00 88 1011.9
20260906093024 68 190 0.0 0.0 0.01 0.02 0.01 88 1014.1
20260906092523 69 190 0.0 0.9 0.01 0.02 0.01 88 1014.1
20260906092022 69 190 0.0 0.9 0.01 0.02 0.01 87 1014.1
20260906091601 69 0 0.0 0.0 0.00 0.01 0.00 87 1012.0
20260906091519 69 190 0.0 0.0 0.01 0.02 0.01 87 1014.1
20260906091018 69 190 0.0 0.0 0.00 0.01 0.00 87 1014.1
20260906090517 69 190 0.0 0.0 0.00 0.01 0.00 86 1014.1
20260906090108 70 0 0.0 0.0 0.00 0.00 0.00 85 1012.0
20260906090016 69 190 0.0 0.0 0.00 0.01 0.00 85 1014.1
20260906085515 70 190 0.0 0.0 0.00 0.06 0.00 84 1014.1
20260906085015 70 190 0.0 0.0 0.00 0.06 0.00 84 1014.1
20260906084603 70 0 0.0 0.0 0.00 0.06 0.00 84 1011.9
20260906084514 70 190 0.0 0.0 0.00 0.06 0.00 84 1014.1
20260906084020 70 190 0.0 0.0 0.00 0.06 0.00 82 1014.1
20260906083512 70 190 0.0 0.0 0.00 0.06 0.00 81 1014.1
20260906083103 71 0 0.0 0.0 0.00 0.06 0.00 81 1012.0
20260906083012 70 190 0.0 0.0 0.00 0.06 0.00 81 1014.1
20260906082513 71 190 0.0 0.0 0.00 0.06 0.00 81 1014.2
20260906082011 71 190 0.0 0.0 0.00 0.06 0.00 82 1014.2
20260906081619 71 0 0.0 0.0 0.00 0.06 0.00 81 1012.0
20260906081512 70 190 0.0 0.0 0.00 0.06 0.00 82 1014.2
20260906081010 70 190 0.0 1.7 0.00 0.06 0.00 82 1014.2
20260906080509 70 190 0.0 1.7 0.00 0.06 0.00 81 1014.3
20260906080108 71 0 0.0 3.5 0.00 0.06 0.00 81 1012.1
20260906080009 71 190 0.0 0.9 0.00 0.06 0.00 81 1014.3
20260906075507 71 190 0.0 3.5 0.00 0.06 0.00 81 1014.3
20260906075006 71 190 0.9 3.5 0.00 0.06 0.00 80 1014.5
20260906074617 71 0 0.0 2.6 0.00 0.06 0.00 80 1012.3
20260906074505 71 190 0.0 1.7 0.00 0.06 0.00 80 1014.6
20260906074003 71 190 0.0 2.6 0.00 0.06 0.00 79 1014.7
20260906073503 71 190 0.0 2.6 0.00 0.06 0.00 78 1014.9
20260906073107 72 190 0.0 2.6 0.00 0.06 0.00 77 1012.7
20260906073001 72 190 0.0 2.6 0.00 0.06 0.00 77 1014.9
20260906072600 72 190 0.0 1.7 0.00 0.06 0.00 76 1014.9
20260906072101 72 190 0.0 0.0 0.00 0.06 0.00 73 1014.9
20260906071605 73 0 0.0 0.0 0.00 0.06 0.00 73 1012.8
20260906071600 72 190 0.0 0.0 0.00 0.06 0.00 74 1015.1
20260906071101 72 190 0.0 1.7 0.00 0.06 0.00 73 1015.1
20260906070558 73 190 0.0 3.5 0.00 0.06 0.00 73 1015.2
20260906070114 73 190 1.7 3.5 0.00 0.06 0.00 72 1013.2
20260906070056 73 190 0.9 3.5 0.00 0.06 0.00 73 1015.3
20260906065555 73 190 0.0 0.9 0.00 0.08 0.00 74 1015.4
20260906065054 73 190 0.0 2.6 0.00 0.08 0.00 73 1015.4
20260906064602 73 190 0.0 1.7 0.00 0.07 0.00 73 1013.4
20260906064557 73 190 0.0 2.6 0.00 0.08 0.00 73 1015.6
20260906064054 73 190 0.0 3.5 0.00 0.08 0.00 73 1015.6
20260906063551 73 190 0.0 3.5 0.00 0.08 0.00 73 1015.5
20260906063102 73 190 1.7 4.3 0.00 0.07 0.00 72 1013.3
20260906063052 73 190 1.7 4.3 0.00 0.08 0.00 72 1015.5
20260906062549 73 190 0.9 4.3 0.00 0.08 0.00 72 1015.6
20260906062049 74 190 0.9 3.5 0.00 0.08 0.00 71 1015.6
20260906061611 74 190 0.9 2.6 0.00 0.07 0.00 70 1013.3
20260906061548 74 190 0.9 2.6 0.00 0.08 0.00 70 1015.6
20260906061046 74 190 0.0 2.6 0.00 0.08 0.00 70 1015.6
20260906060545 74 190 0.0 4.3 0.00 0.08 0.00 71 1015.6
20260906060112 75 190 2.6 4.3 0.00 0.07 0.00 69 1013.3
20260906060043 75 190 2.6 4.3 0.00 0.08 0.00 69 1015.5
20260906055543 75 190 0.0 1.7 0.00 0.09 0.08 71 1015.6
20260906055044 75 190 0.0 0.9 0.00 0.09 0.08 71 1015.6
20260906054614 75 0 0.0 2.6 0.00 0.08 0.07 74 1013.4
20260906054543 75 190 0.0 2.6 0.00 0.09 0.08 74 1015.6
20260906054043 75 190 0.0 2.6 0.00 0.09 0.08 74 1015.6
20260906053543 75 190 0.0 2.6 0.00 0.09 0.08 75 1015.6
20260906053104 75 190 1.7 4.3 0.00 0.08 0.07 74 1013.4
20260906053043 75 190 0.9 4.3 0.00 0.09 0.08 75 1015.6
20260906052543 76 190 0.9 4.3 0.00 0.09 0.08 73 1015.6
20260906052043 76 190 0.0 3.5 0.00 0.09 0.08 69 1015.6
20260906051606 76 190 0.0 3.5 0.00 0.08 0.07 67 1013.4
20260906051543 76 190 0.0 3.5 0.00 0.09 0.08 67 1015.5
20260906051043 76 190 1.7 3.5 0.00 0.09 0.08 69 1015.5
20260906050544 76 190 0.0 2.6 0.00 0.09 0.08 72 1015.5
20260906050110 76 0 0.0 3.5 0.00 0.08 0.07 71 1013.3
20260906050045 76 190 0.0 3.5 0.00 0.09 0.08 71 1015.5
20260906045542 76 190 0.9 3.5 0.00 0.09 0.08 72 1015.5
20260906045042 76 190 0.9 3.5 0.00 0.09 0.08 72 1015.5
20260906044602 76 190 0.9 2.6 0.00 0.08 0.07 71 1013.3
20260906044544 76 190 0.9 3.5 0.00 0.09 0.08 72 1015.5
20260906044042 76 190 0.0 2.6 0.00 0.09 0.08 72 1015.4
20260906043541 76 190 0.9 2.6 0.00 0.09 0.08 71 1015.3
20260906043106 76 0 0.0 0.0 0.00 0.08 0.07 70 1013.0
20260906043041 76 190 0.0 0.0 0.00 0.09 0.08 71 1015.2
20260906042541 76 190 0.0 0.0 0.00 0.09 0.08 71 1015.1
20260906042041 76 190 0.0 0.0 0.00 0.09 0.08 70 1015.1
20260906041602 77 0 0.0 0.0 0.00 0.08 0.07 69 1012.9
20260906041541 77 190 0.0 0.0 0.00 0.09 0.08 70 1015.1
20260906041041 77 190 0.0 0.0 0.00 0.09 0.08 69 1015.0
20260906040541 76 190 0.0 0.0 0.00 0.09 0.08 70 1014.9
20260906040105 76 0 0.0 0.0 0.00 0.08 0.07 70 1012.8
20260906040040 76 190 0.0 0.0 0.00 0.09 0.08 70 1014.9
20260906035541 76 190 0.0 0.0 0.00 0.09 0.08 71 1014.8
20260906035039 76 190 0.0 0.0 0.00 0.09 0.08 71 1014.7
20260906034606 76 0 0.0 2.6 0.00 0.08 0.07 70 1012.6
20260906034540 76 190 0.0 1.7 0.00 0.09 0.08 71 1014.7
20260906034039 76 190 0.0 2.6 0.00 0.09 0.08 71 1014.6
20260906033538 77 190 0.9 2.6 0.00 0.09 0.08 70 1014.5
20260906033106 77 190 0.0 1.7 0.00 0.08 0.07 68 1012.5
20260906033039 77 190 0.0 1.7 0.00 0.09 0.08 69 1014.5
20260906032538 77 190 0.0 0.0 0.00 0.09 0.08 68 1014.5
20260906032038 77 190 0.0 0.0 0.00 0.09 0.08 67 1014.2
20260906031606 77 0 0.0 0.0 0.00 0.08 0.07 67 1012.0
20260906031540 77 190 0.0 0.0 0.00 0.09 0.08 68 1014.1
20260906031038 77 190 0.0 0.0 0.00 0.09 0.08 68 1014.0
20260906030538 77 190 0.0 2.6 0.00 0.09 0.08 68 1013.8
20260906030038 77 190 0.0 3.5 0.00 0.09 0.08 68 1013.5
20260906025537 77 190 0.0 3.5 0.00 0.09 0.08 68 1013.2
20260906025037 77 190 0.9 3.5 0.00 0.09 0.08 67 1013.3
20260906024608 77 190 0.9 3.5 0.00 0.08 0.07 67 1011.1
20260906024540 77 190 0.9 3.5 0.00 0.09 0.08 68 1013.1
20260906024041 77 190 0.9 3.5 0.00 0.09 0.08 68 1012.9
20260906023537 77 190 0.9 4.3 0.00 0.09 0.08 67 1012.9
20260906023102 77 190 0.9 3.5 0.00 0.08 0.07 66 1010.9
20260906023045 77 190 0.9 3.5 0.00 0.09 0.08 67 1012.9
20260906022537 77 190 0.0 3.5 0.00 0.09 0.08 67 1012.8
20260906022039 77 190 0.0 1.7 0.00 0.09 0.08 67 1012.8
20260906021607 77 0 0.0 2.6 0.00 0.08 0.07 66 1010.8
20260906021543 77 190 0.0 2.6 0.00 0.09 0.08 67 1012.7
20260906021036 77 190 0.9 2.6 0.00 0.09 0.08 66 1012.7
20260906020536 77 190 0.0 3.5 0.00 0.09 0.08 66 1012.6
20260906020108 77 0 0.0 4.3 0.00 0.08 0.07 65 1010.7
20260906020036 77 190 0.0 4.3 0.00 0.09 0.08 65 1012.6
20260906015535 78 190 0.9 3.5 0.00 0.09 0.08 64 1012.5
20260906015036 78 190 1.7 3.5 0.00 0.09 0.08 64 1012.3
20260906014604 78 0 0.0 4.3 0.00 0.08 0.07 63 1010.3
20260906014546 78 190 0.0 3.5 0.00 0.09 0.08 64 1012.2
20260906014035 78 190 0.9 4.3 0.00 0.09 0.08 63 1012.1
20260906013535 78 190 0.9 2.6 0.00 0.09 0.08 63 1012.0
20260906013103 78 0 0.9 4.3 0.00 0.08 0.07 62 1010.2
20260906013042 78 190 0.0 4.3 0.00 0.09 0.08 63 1012.1
20260906012534 78 190 0.0 4.3 0.00 0.09 0.08 62 1012.0
20260906012035 79 190 1.7 4.3 0.00 0.09 0.08 61 1012.0
20260906011601 79 190 1.7 6.1 0.00 0.08 0.07 60 1010.1
20260906011536 79 190 1.7 4.3 0.00 0.09 0.08 61 1011.9
20260906011037 79 190 0.9 6.1 0.00 0.09 0.08 61 1011.8
20260906010534 79 190 1.7 6.1 0.00 0.09 0.08 61 1011.5
20260906010108 79 190 4.3 7.8 0.00 0.08 0.07 60 1009.5
20260906010034 79 190 3.5 7.0 0.00 0.09 0.08 61 1011.3
20260906005533 80 190 2.6 7.8 0.00 0.09 0.08 60 1011.3
20260906005034 80 190 1.7 7.0 0.00 0.09 0.08 60 1011.2
20260906004603 81 190 3.5 6.1 0.00 0.08 0.07 59 1009.4
20260906004534 81 190 3.5 7.0 0.00 0.09 0.08 59 1011.2
20260906004033 81 190 2.6 6.1 0.00 0.09 0.08 59 1011.0
20260906003533 81 190 1.7 5.2 0.00 0.09 0.08 59 1010.9
20260906003108 82 190 0.9 4.3 0.00 0.08 0.07 57 1009.2
20260906003033 82 190 1.7 4.3 0.00 0.09 0.08 57 1010.9
20260906002532 82 190 0.9 4.3 0.00 0.09 0.08 57 1010.9
20260906002033 82 190 0.0 5.2 0.00 0.09 0.08 56 1011.0
20260906001605 82 190 2.6 5.2 0.00 0.08 0.07 55 1009.2
20260906001532 82 190 1.7 5.2 0.00 0.09 0.08 55 1010.8
20260906001034 83 190 0.9 3.5 0.00 0.09 0.08 56 1010.7
20260906000531 83 190 0.0 0.9 0.00 0.09 0.08 56 1010.6
20260906000105 83 0 0.0 5.2 0.00 0.08 0.07 56 1008.8
20260906000031 83 190 0.0 4.3 0.00 0.09 0.08 56 1010.3
20260905235531 83 190 1.7 5.2 0.00 0.09 0.08 55 1010.2
20260905235031 83 190 0.9 5.2 0.00 0.09 0.08 56 1010.1
20260905234607 83 190 2.6 7.8 0.00 0.08 0.07 56 1008.6
20260905234531 83 190 1.7 6.1 0.00 0.09 0.08 56 1010.0
20260905234032 83 190 3.5 7.8 0.00 0.09 0.08 55 1009.8
20260905233534 84 190 3.5 8.7 0.00 0.09 0.08 55 1009.7
20260905233105 84 190 3.5 9.6 0.00 0.08 0.07 53 1007.9
20260905233031 84 190 3.5 9.6 0.00 0.09 0.08 54 1009.6
20260905232530 85 190 4.3 9.6 0.00 0.09 0.08 53 1009.4
20260905232030 86 190 2.6 8.7 0.00 0.09 0.08 53 1009.4
20260905231602 86 190 2.6 6.1 0.00 0.08 0.07 52 1007.7
20260905231530 86 190 1.7 6.1 0.00 0.09 0.08 52 1009.3
20260905231032 86 190 1.7 7.8 0.00 0.09 0.08 52 1009.1
20260905230529 86 190 3.5 7.8 0.00 0.09 0.08 51 1009.3
20260905230112 87 190 1.7 7.0 0.00 0.08 0.07 51 1007.7
20260905230028 87 190 1.7 7.0 0.00 0.09 0.08 52 1009.3
20260905225528 87 190 0.9 7.0 0.00 0.09 0.08 53 1009.2
20260905225028 88 190 0.9 7.0 0.00 0.09 0.08 52 1009.3
20260905224609 88 190 2.6 7.0 0.00 0.08 0.07 51 1007.7
20260905224531 88 190 1.7 7.0 0.00 0.09 0.08 50 1009.2
20260905224028 88 190 1.7 5.2 0.00 0.09 0.08 49 1009.3
20260905223530 88 190 2.6 5.2 0.00 0.09 0.08 48 1009.2
20260905223102 89 190 0.9 6.1 0.00 0.08 0.07 47 1007.6
20260905223028 89 190 0.9 6.1 0.00 0.09 0.08 48 1009.2
20260905222528 89 190 2.6 6.1 0.00 0.09 0.08 48 1009.2
20260905222027 89 190 0.9 5.2 0.00 0.09 0.08 47 1009.1
20260905221606 90 190 1.7 8.7 0.00 0.08 0.07 48 1007.5
20260905221528 90 190 0.9 8.7 0.00 0.09 0.08 48 1009.1
20260905221027 90 190 4.3 8.7 0.00 0.09 0.08 47 1009.2
20260905220527 91 190 0.0 7.8 0.00 0.09 0.08 46 1009.3
20260905220110 90 190 3.5 7.8 0.00 0.08 0.07 48 1007.6
20260905220026 90 190 2.6 7.8 0.00 0.09 0.08 47 1009.2
20260905215526 90 190 2.6 7.0 0.00 0.09 0.08 48 1009.2
20260905215028 90 190 2.6 6.1 0.00 0.09 0.08 48 1009.1
20260905214603 90 190 2.6 7.0 0.00 0.08 0.07 48 1007.5
20260905214525 90 190 2.6 7.0 0.00 0.09 0.08 48 1009.1
20260905214027 91 190 2.6 7.0 0.00 0.09 0.08 46 1009.0
20260905213522 91 190 0.0 4.3 0.00 0.09 0.08 46 1009.0
20260905213100 90 0 1.7 4.3 0.00 0.08 0.07 45 1007.4
20260905213022 90 190 0.0 4.3 0.00 0.09 0.08 46 1009.1
20260905212522 90 190 0.9 3.5 0.00 0.09 0.08 44 1009.2
20260905212021 89 190 0.0 3.5 0.00 0.09 0.08 46 1009.2
20260905211630 89 190 1.7 7.0 0.00 0.08 0.07 46 1007.7
20260905211522 89 190 0.9 5.2 0.00 0.09 0.08 46 1009.2
20260905211019 89 190 1.7 7.0 0.00 0.09 0.08 47 1009.2
20260905210518 89 190 1.7 3.5 0.00 0.09 0.08 46 1009.4
20260905210113 89 0 1.7 4.3 0.00 0.08 0.07 46 1008.2
20260905210015 89 190 1.7 3.5 0.00 0.09 0.08 46 1009.6
20260905205515 89 190 0.9 4.3 0.00 0.09 0.08 46 1009.7
20260905205014 89 190 0.9 4.3 0.00 0.09 0.08 47 1009.8
20260905204608 89 190 1.7 4.3 0.00 0.08 0.07 48 1008.4
20260905204513 89 190 1.7 4.3 0.00 0.09 0.08 47 1009.9
20260905204011 89 190 0.0 3.5 0.00 0.09 0.08 50 1009.9
20260905203511 88 190 0.0 7.0 0.00 0.09 0.08 50 1010.1
20260905203119 88 190 2.6 7.0 0.00 0.08 0.07 50 1008.8
20260905203010 88 190 3.5 7.0 0.00 0.09 0.08 50 1010.4
20260905202507 88 190 2.6 6.1 0.00 0.09 0.08 51 1010.6
20260905202007 88 190 0.9 3.5 0.00 0.09 0.08 52 1010.7
20260905201604 88 190 0.0 5.2 0.00 0.08 0.07 51 1009.3
20260905201510 88 190 0.0 5.2 0.00 0.09 0.08 51 1010.8
20260905201004 88 190 0.9 5.2 0.00 0.09 0.08 51 1011.0
20260905200504 87 190 0.9 3.5 0.00 0.09 0.08 52 1011.2
20260905200104 87 0 0.0 4.3 0.00 0.08 0.07 53 1009.9
20260905200001 87 190 0.0 4.3 0.00 0.09 0.08 53 1011.4
20260905195600 86 190 0.0 4.3 0.00 0.09 0.08 53 1011.5
20260905195059 86 190 0.9 3.5 0.00 0.09 0.08 55 1011.7
20260905194605 86 0 0.9 4.3 0.00 0.08 0.07 55 1010.3
20260905194559 86 190 0.0 3.5 0.00 0.09 0.08 56 1011.7
20260905194058 86 190 0.0 4.3 0.00 0.09 0.08 55 1012.0
20260905193557 87 190 1.7 4.3 0.00 0.09 0.08 55 1012.1
20260905193101 87 0 1.7 4.3 0.00 0.08 0.07 55 1010.7
20260905193056 86 190 0.9 4.3 0.00 0.09 0.08 55 1012.2
20260905192557 86 190 0.9 4.3 0.00 0.09 0.08 56 1012.3
20260905192053 86 190 0.9 4.3 0.00 0.09 0.08 55 1012.3
20260905191559 86 190 1.7 5.2 0.00 0.08 0.07 56 1010.9
20260905191552 85 190 1.7 4.3 0.00 0.09 0.08 57 1012.5
20260905191052 85 190 0.9 5.2 0.00 0.09 0.08 58 1012.5
20260905190553 85 190 3.5 6.1 0.00 0.09 0.08 58 1012.5
20260905190106 85 190 1.7 5.2 0.00 0.08 0.07 59 1011.0
20260905190057 85 190 3.5 6.1 0.00 0.09 0.08 59 1012.6
20260905185547 85 190 2.6 5.2 0.00 0.09 0.08 58 1012.7
20260905185046 85 190 1.7 5.2 0.00 0.09 0.08 60 1012.9
20260905184609 84 190 0.9 5.2 0.00 0.08 0.07 60 1011.3
20260905184547 84 190 0.9 5.2 0.00 0.09 0.08 61 1013.0
20260905184045 84 190 2.6 5.2 0.00 0.09 0.08 60 1013.1
20260905183544 84 190 0.0 2.6 0.00 0.09 0.08 61 1013.2
20260905183102 84 190 0.9 4.3 0.00 0.08 0.07 58 1011.5
20260905183049 84 190 0.9 3.5 0.00 0.09 0.08 58 1013.3
20260905182542 84 190 0.9 4.3 0.00 0.09 0.08 60 1013.4
20260905182041 84 190 0.9 2.6 0.00 0.09 0.08 60 1013.5
20260905181612 84 190 0.0 3.5 0.00 0.08 0.07 60 1011.9
20260905181544 83 190 0.0 2.6 0.00 0.09 0.08 60 1013.5
20260905181038 82 190 0.0 3.5 0.00 0.09 0.08 64 1013.6
20260905180538 82 190 0.9 3.5 0.00 0.09 0.08 64 1013.6
20260905180108 82 190 0.9 4.3 0.00 0.08 0.07 65 1012.1
20260905180036 82 190 0.9 3.5 0.00 0.09 0.08 66 1013.6
20260905175537 81 190 0.9 4.3 0.00 0.09 0.08 65 1013.7
20260905175033 81 190 0.9 4.3 0.00 0.09 0.08 66 1013.9
20260905174603 81 190 0.0 4.3 0.00 0.08 0.07 66 1012.3
20260905174534 80 190 0.9 4.3 0.00 0.09 0.08 66 1014.0
20260905174035 80 190 0.9 4.3 0.00 0.09 0.08 67 1014.1
20260905173532 80 190 0.0 2.6 0.00 0.09 0.08 66 1014.2
20260905173103 80 0 0.0 5.2 0.00 0.08 0.07 69 1012.7
20260905173030 79 190 0.0 5.2 0.00 0.09 0.08 69 1014.4
20260905172530 79 190 0.9 5.2 0.00 0.09 0.08 68 1014.6
20260905172030 79 190 0.0 4.3 0.00 0.09 0.08 69 1014.7
20260905171602 79 190 0.9 4.3 0.00 0.08 0.07 68 1013.3
20260905171542 79 190 1.7 4.3 0.00 0.09 0.08 69 1014.9
20260905171026 78 190 0.0 3.5 0.00 0.09 0.08 71 1015.0
20260905170526 78 190 1.7 3.5 0.00 0.09 0.08 71 1015.1
20260905170108 78 0 0.0 3.5 0.00 0.08 0.07 71 1013.5
20260905170025 78 190 0.0 3.5 0.00 0.09 0.08 72 1015.1
20260905165524 77 190 0.0 3.5 0.00 0.09 0.08 72 1015.2
20260905165024 77 190 0.9 3.5 0.00 0.09 0.08 73 1015.2
20260905164605 77 190 0.9 3.5 0.00 0.08 0.07 72 1013.7
20260905164524 77 190 0.0 3.5 0.00 0.09 0.08 73 1015.2
20260905164024 77 190 0.9 3.5 0.00 0.09 0.08 74 1015.2
20260905163524 77 190 1.7 3.5 0.00 0.09 0.08 73 1015.4
20260905163103 77 0 0.0 2.6 0.00 0.08 0.07 72 1014.0
20260905163023 77 190 0.0 1.7 0.00 0.09 0.08 71 1015.5
20260905162521 77 190 0.0 2.6 0.00 0.09 0.08 72 1015.6
20260905162020 77 190 0.9 2.6 0.00 0.09 0.08 74 1015.7
20260905161605 76 0 0.9 2.6 0.00 0.08 0.07 77 1014.3
20260905161521 76 190 0.0 2.6 0.00 0.09 0.08 77 1015.9
20260905161020 76 190 0.9 2.6 0.00 0.09 0.08 76 1015.9
20260905160519 76 190 0.0 0.0 0.00 0.09 0.08 77 1015.9
20260905160137 75 0 0.0 0.9 0.00 0.08 0.07 78 1014.4
20260905160020 75 190 0.0 0.0 0.00 0.09 0.08 79 1016.0
20260905155519 74 190 0.0 0.9 0.00 0.09 0.08 81 1016.1
20260905155016 74 190 0.0 0.9 0.00 0.09 0.08 82 1016.1
20260905154603 74 0 0.0 0.0 0.00 0.08 0.07 82 1014.5
20260905154516 74 190 0.0 0.0 0.00 0.09 0.08 83 1016.0
20260905154016 74 190 0.0 0.0 0.00 0.09 0.08 82 1016.0
20260905153516 74 190 0.0 1.7 0.00 0.09 0.08 83 1015.9
20260905153106 74 0 0.0 0.9 0.00 0.08 0.07 82 1014.3
20260905153017 74 190 0.0 0.9 0.00 0.09 0.08 82 1015.9
20260905152516 74 190 0.0 0.0 0.00 0.09 0.08 81 1015.8
20260905152018 74 190 0.0 1.7 0.00 0.09 0.08 82 1015.9
20260905151610 74 0 0.9 1.7 0.00 0.08 0.07 81 1014.2
20260905151516 74 190 0.0 1.7 0.00 0.09 0.08 82 1015.8
20260905151018 74 190 0.0 1.7 0.00 0.09 0.08 82 1015.8
20260905150515 74 190 0.0 0.0 0.00 0.09 0.08 83 1015.9
20260905150105 73 0 0.0 0.9 0.00 0.08 0.07 83 1014.3
20260905150012 73 190 0.0 0.0 0.00 0.09 0.08 83 1016.0
20260905145510 73 190 0.0 0.9 0.00 0.09 0.08 85 1016.0
20260905145009 72 190 0.0 0.9 0.00 0.09 0.08 85 1016.0
20260905144605 72 0 0.0 0.9 0.00 0.08 0.07 85 1014.1
20260905144516 72 190 0.0 0.9 0.00 0.09 0.08 86 1015.9
20260905144010 72 190 0.0 0.9 0.00 0.09 0.08 87 1016.0
20260905143510 72 190 0.0 0.9 0.00 0.09 0.08 86 1016.0
20260905143113 72 0 0.0 0.0 0.00 0.08 0.07 85 1014.1
20260905143007 72 190 0.0 0.0 0.00 0.09 0.08 87 1015.9
20260905142507 71 190 0.0 0.0 0.00 0.09 0.08 87 1016.0
20260905142004 71 190 0.0 0.0 0.00 0.09 0.08 88 1015.9
20260905141610 71 0 0.0 0.0 0.00 0.08 0.07 87 1014.0
20260905141505 71 190 0.0 0.0 0.00 0.09 0.08 88 1016.0
20260905141006 70 190 0.0 0.0 0.00 0.09 0.08 88 1016.0
20260905140504 70 190 0.0 0.0 0.00 0.09 0.08 89 1016.0
20260905140106 70 0 0.0 0.0 0.00 0.08 0.07 89 1014.0
20260905140004 70 190 0.0 0.0 0.00 0.09 0.08 89 1016.0
20260905135502 69 190 0.0 0.0 0.00 0.09 0.08 90 1015.9
20260905135002 69 190 0.0 0.0 0.00 0.09 0.08 91 1015.8
20260905134610 69 0 0.0 0.0 0.00 0.08 0.07 90 1013.9
20260905134502 69 190 0.0 0.0 0.00 0.09 0.08 91 1015.8
20260905134003 69 190 0.0 0.0 0.00 0.09 0.08 92 1015.8
20260905133502 68 190 0.0 0.9 0.00 0.09 0.08 92 1015.8
20260905133107 68 0 0.0 0.9 0.00 0.08 0.07 92 1014.0
20260905133001 68 190 0.0 0.9 0.00 0.09 0.08 92 1015.8
20260905132502 68 190 0.0 0.0 0.00 0.09 0.08 93 1015.8
20260905132104 68 190 0.0 0.0 0.00 0.09 0.08 94 1015.7
20260905131616 68 190 0.0 0.0 0.00 0.09 0.08 94 1015.6
20260905131607 68 0 0.0 0.0 0.00 0.08 0.07 94 1013.8
20260905131059 68 190 0.0 0.0 0.00 0.09 0.08 94 1015.6
20260905130601 68 190 0.0 0.0 0.00 0.09 0.08 94 1015.7
20260905130105 68 0 0.0 0.0 0.00 0.08 0.07 94 1013.8
20260905130058 68 190 0.0 0.0 0.00 0.09 0.08 94 1015.6
20260905125557 68 190 0.0 0.0 0.00 0.09 0.08 95 1015.5
20260905125058 67 190 0.0 0.0 0.00 0.09 0.08 94 1015.6
20260905124607 68 0 0.0 1.7 0.00 0.08 0.07 94 1013.7
20260905124557 67 190 0.0 1.7 0.00 0.09 0.08 94 1015.5
20260905124055 67 190 0.0 1.7 0.00 0.09 0.08 94 1015.4
20260905123555 67 190 0.0 0.0 0.00 0.09 0.08 94 1015.2
20260905123109 67 0 0.0 0.0 0.00 0.08 0.07 93 1013.5
20260905123056 67 190 0.0 0.0 0.00 0.09 0.08 94 1015.1
20260905122554 67 190 0.0 0.0 0.00 0.09 0.08 94 1015.1
20260905122053 67 190 0.0 0.0 0.00 0.09 0.08 94 1015.1
20260905121612 68 0 0.0 0.0 0.00 0.08 0.07 94 1013.3
20260905121553 68 190 0.0 0.0 0.00 0.09 0.08 94 1015.0
20260905121051 68 190 0.0 0.0 0.00 0.09 0.08 94 1014.9
20260905120554 68 190 0.0 0.0 0.00 0.09 0.08 94 1014.8
20260905120121 68 0 0.0 0.0 0.00 0.08 0.07 94 1013.0
20260905120050 68 190 0.0 0.0 0.00 0.09 0.08 94 1014.6
20260905115550 68 190 0.0 0.0 0.00 0.09 0.08 94 1014.5
20260905115050 68 190 0.0 0.0 0.00 0.09 0.08 94 1014.5
20260905114611 68 0 0.0 0.9 0.00 0.08 0.07 94 1012.8
20260905114552 68 190 0.0 0.0 0.00 0.09 0.08 94 1014.4
20260905114049 68 190 0.0 0.9 0.00 0.09 0.08 94 1014.4
20260905113549 68 190 0.0 0.9 0.00 0.09 0.08 94 1014.1
20260905113110 68 0 0.0 0.9 0.00 0.08 0.07 94 1012.5
20260905113049 68 190 0.0 0.9 0.00 0.09 0.08 94 1014.2
20260905112549 68 190 0.0 0.9 0.00 0.09 0.08 94 1014.3
20260905112047 68 190 0.0 0.0 0.00 0.09 0.08 94 1014.2
20260905111613 69 0 0.0 0.0 0.00 0.08 0.07 93 1012.5
20260905111547 68 190 0.0 0.0 0.00 0.09 0.08 94 1014.1
20260905111048 69 190 0.0 0.0 0.00 0.09 0.08 94 1014.1
20260905110545 69 190 0.0 0.0 0.00 0.09 0.08 93 1014.0
20260905110109 69 0 0.0 0.0 0.00 0.08 0.07 93 1012.3
20260905110044 69 190 0.0 0.0 0.00 0.09 0.08 94 1014.0
20260905105544 69 190 0.0 0.0 0.00 0.09 0.08 93 1013.9
20260905105044 69 190 0.0 0.0 0.00 0.09 0.08 94 1013.9
20260905104605 69 0 0.0 0.0 0.00 0.08 0.07 93 1012.2
20260905104553 69 190 0.0 0.0 0.00 0.09 0.08 94 1013.9
20260905104044 69 190 0.0 0.0 0.00 0.09 0.08 93 1013.9
20260905103547 69 190 0.0 0.0 0.00 0.09 0.08 94 1014.0
20260905103100 69 0 0.0 0.0 0.00 0.08 0.07 93 1012.4
20260905103048 69 190 0.0 0.0 0.00 0.09 0.08 93 1014.0
20260905102542 69 190 0.0 0.0 0.00 0.09 0.08 93 1014.1
20260905102042 69 190 0.0 0.0 0.00 0.09 0.08 93 1014.1
20260905101601 69 0 0.0 0.0 0.00 0.08 0.07 93 1012.4
20260905101542 69 190 0.0 0.0 0.00 0.09 0.08 93 1014.1
20260905101041 69 190 0.0 0.0 0.01 0.09 0.08 93 1014.1
20260905100543 69 190 0.0 0.0 0.01 0.09 0.08 94 1014.2
20260905100110 69 0 0.0 1.7 0.00 0.08 0.07 93 1012.7
20260905100040 69 190 0.0 1.7 0.01 0.09 0.08 94 1014.4